TimeCDT,TemperatureF,Dew PointF,Humidity,Sea Level PressureIn,VisibilityMPH,Wind Direction,Wind SpeedMPH,Gust SpeedMPH,PrecipitationIn,Events,Conditions,WindDirDegrees,DateUTC
12:58 AM,69.8,69.4,99,30.01,10.0,SSE,4.6,-,N/A,,Clear,160,2013-05-21 05:58:00
1:58 AM,69.4,69.1,99,29.99,6.0,South,3.5,-,N/A,,Clear,180,2013-05-21 06:58:00
2:58 AM,69.1,68.7,99,29.99,9.0,South,2.3,-,N/A,,Clear,190,2013-05-21 07:58:00
3:23 AM,68.0,66.2,94,29.97,1.2,Calm,Calm,-,N/A,,Clear,0,2013-05-21 08:23:00
3:28 AM,66.2,66.2,100,29.97,0.5,Calm,Calm,-,N/A,Fog,Fog,0,2013-05-21 08:28:00
3:33 AM,66.2,66.2,100,29.97,0.8,Calm,Calm,-,N/A,,Clear,0,2013-05-21 08:33:00
3:38 AM,66.2,66.2,100,29.97,2.0,Calm,Calm,-,N/A,,Clear,0,2013-05-21 08:38:00
3:43 AM,66.2,66.2,100,29.97,3.0,Calm,Calm,-,N/A,,Clear,0,2013-05-21 08:43:00
3:48 AM,64.4,64.4,100,29.97,1.0,Calm,Calm,-,N/A,,Clear,0,2013-05-21 08:48:00
3:53 AM,64.4,64.4,100,29.97,0.8,East,2.3,-,N/A,,Clear,100,2013-05-21 08:53:00
3:58 AM,64.4,64.4,100,29.98,2.0,East,1.2,-,N/A,,Clear,80,2013-05-21 08:58:00
4:03 AM,64.4,64.4,100,29.97,5.0,Calm,Calm,-,N/A,,Clear,0,2013-05-21 09:03:00
4:23 AM,64.4,64.4,100,29.98,2.0,Calm,Calm,-,N/A,,Clear,0,2013-05-21 09:23:00
4:28 AM,64.4,64.4,100,29.98,1.0,Calm,Calm,-,N/A,,Clear,0,2013-05-21 09:28:00
4:33 AM,64.4,62.6,94,29.98,0.5,NE,2.3,-,N/A,Fog,Fog,40,2013-05-21 09:33:00
4:53 AM,64.4,62.6,94,29.99,0.8,ENE,3.5,-,N/A,,Clear,70,2013-05-21 09:53:00
4:58 AM,64.4,62.6,94,29.99,1.0,ENE,2.3,-,N/A,,Clear,60,2013-05-21 09:58:00
5:03 AM,64.4,64.4,100,29.98,0.5,Calm,Calm,-,N/A,Fog,Fog,0,2013-05-21 10:03:00
5:08 AM,64.4,62.6,94,29.98,0.2,East,2.3,-,N/A,Fog,Fog,80,2013-05-21 10:08:00
5:18 AM,64.4,64.4,100,29.98,0.5,Calm,Calm,-,N/A,Fog,Fog,0,2013-05-21 10:18:00
5:38 AM,64.4,64.4,100,29.98,0.2,Calm,Calm,-,N/A,Fog,Fog,0,2013-05-21 10:38:00
5:53 AM,62.6,62.6,100,29.99,0.5,Calm,Calm,-,N/A,Fog,Fog,0,2013-05-21 10:53:00
5:58 AM,63.1,63.0,99,30.00,0.5,Calm,Calm,-,N/A,Fog,Fog,0,2013-05-21 10:58:00
6:03 AM,62.6,62.6,100,30.00,0.2,North,1.2,-,N/A,Fog,Fog,10,2013-05-21 11:03:00
6:58 AM,65.7,65.7,100,30.01,0.2,NE,1.2,-,N/A,Fog,Fog,40,2013-05-21 11:58:00
7:03 AM,66.2,66.2,100,30.01,0.5,Calm,Calm,-,N/A,Fog,Fog,0,2013-05-21 12:03:00
7:08 AM,66.2,66.2,100,30.01,1.0,Calm,Calm,-,N/A,,Clear,0,2013-05-21 12:08:00
7:23 AM,68.0,68.0,100,30.01,1.8,NNE,1.2,-,N/A,,Clear,20,2013-05-21 12:23:00
7:28 AM,68.0,68.0,100,30.01,5.0,NE,2.3,-,N/A,,Clear,40,2013-05-21 12:28:00
7:58 AM,71.4,71.4,100,30.04,10.0,Calm,Calm,-,N/A,,Partly Cloudy,0,2013-05-21 12:58:00
8:55 AM,78.8,67.3,68,30.03,10.0,SE,4.6,-,N/A,,Scattered Clouds,130,2013-05-21 13:55:00
9:55 AM,81.1,66.2,60,30.03,10.0,Variable,5.8,-,N/A,,Partly Cloudy,0,2013-05-21 14:55:00
10:55 AM,84.7,65.3,52,30.02,10.0,WSW,8.1,-,N/A,,Partly Cloudy,240,2013-05-21 15:55:00
11:55 AM,87.1,63.5,45,30.00,10.0,Variable,4.6,-,N/A,,Scattered Clouds,0,2013-05-21 16:55:00
12:57 PM,87.3,63.5,45,29.99,10.0,South,8.1,-,N/A,,Scattered Clouds,190,2013-05-21 17:57:00
1:55 PM,88.3,64.6,45,29.98,10.0,SSE,9.2,19.6,N/A,,Scattered Clouds,160,2013-05-21 18:55:00
2:55 PM,87.3,65.7,48,29.97,10.0,South,11.5,-,N/A,,Scattered Clouds,180,2013-05-21 19:55:00
3:55 PM,87.6,62.2,42,29.95,10.0,South,11.5,-,N/A,,Scattered Clouds,170,2013-05-21 20:55:00
4:55 PM,87.4,62.8,44,29.93,10.0,SSW,11.5,-,N/A,,Partly Cloudy,210,2013-05-21 21:55:00
5:55 PM,84.4,64.2,51,29.91,10.0,SSW,9.2,-,N/A,,Partly Cloudy,200,2013-05-21 22:55:00
6:55 PM,81.5,65.3,58,29.91,10.0,South,10.4,-,N/A,,Partly Cloudy,190,2013-05-21 23:55:00
7:55 PM,77.0,67.8,73,29.92,10.0,South,8.1,-,N/A,,Clear,190,2013-05-22 00:55:00
8:55 PM,74.1,67.5,80,29.93,10.0,South,4.6,-,N/A,,Clear,170,2013-05-22 01:55:00
9:55 PM,71.2,67.5,88,29.95,10.0,SSE,3.5,-,N/A,,Clear,160,2013-05-22 02:55:00
10:55 PM,68.4,66.6,94,29.96,10.0,Calm,Calm,-,N/A,,Clear,0,2013-05-22 03:55:00
11:55 PM,67.8,66.7,96,29.96,10.0,Calm,Calm,-,N/A,,Clear,0,2013-05-22 04:55:00